カタリナ彗星

C/2017 S6 ( Catalina )

English version
Home page
Updated on November 23, 2017

---------------------------------------------------------------------

・ プロフィール

発見日 2017年9月30日
発見光度 17.9等
発見者 G. J. Leonard (Catalina Sky Survey)

・ 写真集

・ 軌道要素

Epoch 2018 Feb. 11.0 TT = JDT 2458160.5
T 2018 Feb. 26.86509 TT                                 MPCW
q   1.5433269            (2000.0)            P               Q
z  -0.0016201      Peri.  134.64878     +0.93844862     -0.00717954
 +/-0.0003394      Node   130.87383     -0.23679981     -0.74124597
e   1.0025003      Incl.  152.82483     +0.25147573     -0.67119510
From 89 observations 2017 Sept. 30-Nov. 2, mean residual 0".6.

・ 星図

・ 光度変化

        m1 = 12.5 + 5 logΔ + 10.0 log r

---------------------------------------------------------------------

軌道要素はM.P.E.C. 2017-V13に掲載されたものです。
星図はステラナビゲータ Ver.10 (アストロアーツ) で作成したものです。
光度グラフはComet for Windowsで作成したものです。

---------------------------------------------------------------------

Copyright(C) Seiichi Yoshida (comet@aerith.net). All rights reserved.